STARLINK-5133 (53980 NORAD) Tracking and Keplerian Element Data

This shows tracking and keplerian element data for the satellite.

Feedback or suggestion? Click here.




ElementValue
Catalog53980
NameSTARLINK-5133
Epoch Orbit130
Epoch Day324.91667824
Epoch Year2022
RAAN227.783
Inclination53.2174
Eccentricity0.0001656
Argument of Perigee51.5684
Mean Anonmoly145.895
Mean Motion15.2685024
Decay Rate-0.01133385
L11 53980U 22125S 22324.91667824 -.01133385 00000+0 -46529-1 0 9995
L22 53980 53.2174 227.7830 0001656 51.5684 145.8950 15.26850240 1304



Live tracking and technical data element details for STARLINK-5133 (NORAD 53980). STARLINK-5133 can be tracked NOW for your location showing map with azimuth and elevation plus other details from your city location.







IsCatalogInMostPopularTable: catalog: 53980, numindb: 3
Update: records affected: 1



GetName: 53980 STARLINK-5133

Hit Count: updated at: Mon, 28 Nov 2022 21:54:05 GMT